Regional Weather Roundup
Issued by NWS

Home | Current Version | Previous Version | Graphics & Text | Print | Product List | Glossary Off
Versions: 1 2 3 4 5 6 7 8 9 10 11 12 13 14 15 16 17 18 19 20 21 22 23 24 25 26 27 28 29 30 31 32 33 34 35 36 37 38 39 40 41 42 43 44 45 46 47 48 49 50

000
ASUS44 KFWD 260903
RWRTX
NORTH TEXAS HOURLY WEATHER ROUNDUP
NATIONAL WEATHER SERVICE FORT WORTH TX
400 AM CDT FRI AUG 26 2016

NOTE: "FAIR" INDICATES FEW OR NO CLOUDS BELOW 12,000 FEET WITH NO
SIGNIFICANT WEATHER AND/OR OBSTRUCTIONS TO VISIBILITY.

TXZ118-119-261000-
DALLAS/FORT WORTH METROPLEX

CITY           SKY/WX    TMP DP  RH WIND       PRES   REMARKS
DFW AIRPORT    MOCLDY    79  72  79 S8        30.02F
DALLAS LOVE    MOCLDY    79  72  79 S10       30.03F
FTW MEACHAM    FAIR      79  73  82 S7        30.03F
DAL-EXECUTIVE  FAIR      77  73  87 S6        30.03F
FTW-ALLIANCE   FAIR      77  73  87 S7        30.03F
FTW-NAS-JRB    FAIR      79  72  79 S9        30.03
FTW-SPINKS     FAIR      77  73  90 S3        30.04F
ARLINGTON      FAIR      77  73  87 SE7       30.03F
GRAND PRAIRIE  FAIR      78  72  82 S7        30.05F
ADDISON        FAIR      79  73  83 S8        30.05F
MESQUITE       FAIR      73  72  99 SW3       30.03F
LANCASTER      FAIR      76  72  86 CALM      30.04F
$$

TXZ091>094-102>105-117-120-121-131>134-261000-
NORTH CENTRAL TEXAS

CITY           SKY/WX    TMP DP  RH WIND       PRES   REMARKS
SHRMAN/DENISON NOT AVBL
GAINESVILLE      N/A     73  71  91 CALM      30.06F
BOWIE          FAIR      74  71  90 E3        30.04F
BRIDGEPORT     FAIR      75  73  92 CALM      30.05F
DECATUR        FAIR      75  71  88 SE3       30.05F
DENTON         FAIR      76  72  87 S5        30.03F
MCKINNEY       FAIR      74  71  91 SE5       30.04F
GREENVILLE     FAIR      73  70  88 CALM      30.04F
ROCKWALL       FAIR      74  72  91 S7        30.03F
TERRELL        FAIR      75  71  87 SE3       30.03F
WAXAHACHIE     FAIR      74  74 100 SE3       30.05F
CLEBURNE       FAIR      75  75 100 SE7       30.05F
GRANBURY       FAIR      79  68  68 S5        30.04F
$$

TXZ083>090-098>101-113>116-127>130-139>142-154-155-261000-
WESTERN NORTH TEXAS

CITY           SKY/WX    TMP DP  RH WIND       PRES   REMARKS
WICHITA FALLS  FAIR      72  64  76 NW13      30.06R
WF-KICKAPOO    FAIR      77  65  65 N12G23    30.07F
VERNON         FAIR      70  60  70 NE6       30.09F
ABILENE        FAIR      73  66  78 SE9       30.08R
ABILENE-DYESS  FAIR      73  65  74 SE5       30.06S
CISCO          FAIR      72  68  88 S5        30.09S
GRAHAM         FAIR      75  71  87 SE5       30.02F
MINERAL WELLS  FAIR      73  71  93 SE8       30.03F
STEPHENVILLE   FAIR      73  68  83 CALM      30.08F
COMANCHE       FAIR      72  72 100 S3        30.07F
BROWNWOOD      FAIR      72  68  88 CALM      30.06F
COLEMAN        FAIR      73  66  80 S5        30.08S
$$

TXZ143>147-156>162-174-175-261000-
CENTRAL TEXAS

CITY           SKY/WX    TMP DP  RH WIND       PRES   REMARKS
WACO           FAIR      77  75  93 SE8       30.03F
WACO-MCGREGOR  FAIR      75  72  90 E5        30.04F
HILLSBORO      FAIR      74  72  92 SE6       30.03F
CORSICANA      FAIR      75  70  84 SW5       30.04F
MEXIA          FAIR      73  71  95 CALM      30.04S
HEARNE         FAIR      74  72  92 CALM      30.04S
CAMERON        FAIR      75  73  93 CALM      30.03F
TEMPLE         FAIR      75  73  93 SE8       30.04F
KILLEEN        MOCLDY    75  73  93 SE6       30.03F
KILLEEN-SKYLRK FAIR      76  74  93 SE6       30.03F
FORT HOOD      FAIR      75  71  89 SE5       30.01F
HAMILTON       FAIR      73  73 100 S6        30.06F
LAMPASAS       FAIR      76  74  95 CALM      30.04F
$$

TXZ095>097-106>112-122>126-135>138-148>153-164>167-261000-
EAST TEXAS

CITY           SKY/WX    TMP DP  RH WIND       PRES   REMARKS
PARIS          FAIR      73  70  88 CALM      30.05S
SULPHUR SPRNGS FAIR      74  72  93 S5        30.06F
MOUNT PLEASANT FAIR      73  73 100 SW5       30.05S
GILMER         FAIR      73  71  95 S3        30.04S
TYLER          FAIR      74  72  93 E5        30.04S
LONGVIEW       FAIR      74  73  97 S7        30.03F
MARSHALL         N/A    N/A N/A N/A MISG        N/A
ATHENS         FAIR      72  72 100 CALM      30.02F
PALESTINE      FAIR      73  72  98 CALM      30.05S
JACKSONVILLE   FAIR      73  72  99 CALM      30.07R
HENDERSON      FAIR      73  73 100 CALM      30.07R
CENTER         CLOUDY    75  74  95 NW3       30.06R
NACOGDOCHES    MOCLDY   N/A N/A N/A CALM      30.03S
LUFKIN         FAIR      73  72  96 N3        30.03S
$$

SUPPLEMENTAL OBSERVATIONS (CENTRAL)

CITY           SKY/WX    TMP DP  RH WIND       PRES   REMARKS
$$

SUPPLEMENTAL OBSERVATIONS (WEST)

CITY           SKY/WX    TMP DP  RH WIND       PRES   REMARKS
$$

SUPPLEMENTAL OBSERVATIONS (EAST)

CITY           SKY/WX    TMP DP  RH WIND       PRES   REMARKS
$$

SUPPLEMENTAL OBSERVATIONS ARE A COLLECTION OF AUTOMATED INSTRUMENTS
THAT ARE MAINTAINED BY A VARIETY OF FEDERAL AND STATE AGENCIES.
CERTAIN ELEMENTS...SUCH AS HUMIDITY VALUES AND SUSTAINED WIND
SPEEDS...MAY BE APPROXIMATED.





USA.gov is the U.S. government's official web portal to all federal, state and local government web resources and services.